[[{"header":{"parameterUnit":"m.s-1","parameterCategory":1,"la1":30.2991,"la2":30.254,"lo1":-89.0895,"lo2":-89.0444,"dy":0.0017,"dx":0.0017,"nx":28,"ny":28,"refTime":"2024-11-24T09:00:00:Z","depth":0,"parameterNumber":2,"parameterNumberName":"U-component_of_WINDS"},"data":[0,0,0,0,0,0,0,0,0,0,0,0,0,0,0,0,0,0,0,0,0,0,0,0,0,0,0,0,0,0,0,0,0,0,0,0,0,0,0,0,0,0,0,0,0,0,0,0,0,0,0,0,0,0,0,0,0,0,0.9484,0.9484,0,0.9543,0.9544,0.9545,0.9543,0.9542,0.9542,0.9541,0.9597,0.96,0.9602,0,0,0,0,0,0,0,0,0,0,0,0,0,0.9365,0.9367,0.9484,0.9485,0.9485,0.9543,0.9544,0.9545,0.9543,0.9542,0.9541,0.954,0.9597,0.9599,0.9602,0,0,0,0,0,0,0,0,0,0,0,0,0,0.942,0.9368,0.9484,0.9492,0.9493,0.9543,0.9544,0.9545,0.9543,0.9542,0.9541,0.954,0.9596,0.9599,0.9602,0.9647,0,0,0.9613,0.9614,0,0,0,0,0,0,0,0,0.9417,0.9424,0.949,0.9491,0.9493,0.9535,0.9523,0.9579,0.9544,0.9524,0.9541,0.9539,0.9577,0.9582,0.9596,0.965,0.9652,0.9613,0.9615,0.9616,0.9617,0,0,0,0,0,0,0,0.9413,0.9422,0.9507,0.9491,0.9492,0.9491,0.9497,0.9534,0.9556,0.9526,0.9526,0.9533,0.9578,0.9592,0.9597,0.9653,0.9613,0.9616,0.9618,0.9619,0.9747,0.9749,0,0,0,0,0,0,0.9408,0.9418,0.9505,0.9509,0.9451,0.9494,0.9501,0.9522,0.9556,0.956,0.9534,0.9533,0.9587,0.9593,0.9599,0.9654,0.9616,0.962,0.9622,0.9746,0.9748,0.9749,0,0,0,0,0,0,0.9405,0.9416,0.9503,0.9464,0.9475,0.9497,0.9521,0.9524,0.9539,0.9563,0.9566,0.9545,0.9587,0.9594,0.9636,0.9656,0.9621,0.9624,0.9744,0.9746,0.9748,0.9764,0,0,0,0,0,0,0.9402,0.9415,0.9433,0.9464,0.9477,0.954,0.9522,0.9526,0.9545,0.9544,0.9574,0.9577,0.9586,0.9631,0.9639,0.966,0.9627,0.9743,0.9745,0.9748,0.9761,0.9766,0.977,0,0,0,0,0,0.9398,0.9434,0.9434,0.9444,0.95,0.9541,0.9548,0.9558,0.9547,0.9565,0.958,0.9577,0.9652,0.9635,0.9644,0.9666,0.9741,0.9744,0.9747,0.9759,0.9765,0.977,0,0,0,0,0,0,0.9402,0.9438,0.9438,0.9486,0.9511,0.954,0.9563,0.9564,0.9591,0.9589,0.9599,0.9606,0.9647,0.9661,0.9641,0.9712,0.9695,0.97,0.9701,0.9707,0.9711,0.9706,0.963,0,0,0,0,0,0.9409,0.944,0.9469,0.9508,0.9521,0.954,0.9558,0.9564,0.959,0.9599,0.9618,0.9641,0.9671,0.9689,0.9718,0.9764,0.977,0.9784,0.9788,0.9791,0.9795,0.9821,0.9827,0.9759,0.9759,0.9759,0,0,0.9422,0.9446,0.9465,0.951,0.953,0.9561,0.9549,0.9582,0.9605,0.9604,0.9645,0.9659,0.9686,0.973,0.975,0.9743,0.9815,0.9795,0.9798,0.98,0.9824,0.9831,0.9836,0.9761,0.9761,0.9761,0,0,0.9463,0.9484,0.9519,0.954,0.9571,0.9584,0.9592,0.9623,0.9633,0.9674,0.9675,0.9701,0.9751,0.9771,0.9787,0.9837,0.9835,0.9846,0.9867,0.9892,0.9898,0.9902,0.992,0.9926,0.985,0.985,0.985,0,0.9475,0.9524,0.9537,0.9571,0.959,0.9593,0.9628,0.9647,0.9685,0.9698,0.969,0.9753,0.9772,0.982,0.9833,0.9846,0.9855,0.9842,0.9896,0.9901,0.9905,0.9922,0.9929,0.9851,0.9851,0.9851,0.9851,0,0.9537,0.9571,0.9595,0.9634,0.9656,0.969,0.9708,0.9729,0.9733,0.9747,0.9789,0.9811,0.9844,0.9857,0.9861,0.9906,0.99,0.9894,0.9877,0.9913,0.9929,0.9935,0.9853,0.9852,0.9852,0.9852,0,0,0.958,0.9628,0.9636,0.9654,0.9689,0.9715,0.9749,0.9783,0.9801,0.9827,0.9855,0.9899,0.9893,0.9912,0.9918,0.994,0.9978,0.9931,0.9932,0.9939,1.0029,1.0034,1.0041,0.9978,0.9979,0.998,1.0027,0,0.9624,0.9687,0.97,0.9754,0.9784,0.9789,0.9818,0.9843,0.9857,0.9884,0.9899,0.9929,0.992,0.9931,0.9953,0.9969,0.9996,0.9966,1.0003,1.0004,0.9995,1.0049,1.0053,1.0097,1.0033,1.0034,1.0035,0,0.9683,0.9713,0.977,0.9802,0.9816,0.9843,0.9875,0.9902,0.9929,0.9938,0.996,0.9964,0.9999,0.9983,1.0031,1.0009,1.0026,1.0036,1.0038,1.0041,1.0021,1.0053,1.0111,1.0117,1.0045,1.0044,1.0044,0,0.9708,0.9763,0.9804,0.9819,0.9858,0.9877,0.9893,0.992,0.994,0.9968,0.9981,1.0013,1.0029,1.0053,1.0066,1.0053,1.0113,1.0097,1.012,1.012,1.0132,1.0131,1.0192,1.0144,1.0144,1.0143,1.0143,0,0.9755,0.979,0.9816,0.9841,0.988,0.9895,0.9933,0.9949,0.9973,1.0001,1.0006,1.0032,1.0048,1.0076,1.0086,1.0124,1.0132,1.0139,1.0141,1.0138,1.0137,1.0148,1.0145,1.0145,1.0145,1.0144,1.0144,0,0.9789,0.9808,0.9854,0.9887,0.9897,0.9924,0.9952,0.9976,0.9991,1.0026,1.0035,1.0058,1.0091,1.0107,1.0147,1.0154,1.0197,1.0198,1.0188,1.0189,1.0211,1.0208,1.0281,1.0291,1.0236,1.0237,1.0237,0,0.9817,0.9844,0.9881,0.9901,0.9919,0.9951,0.9972,0.9988,1.0009,1.0044,1.0064,1.0098,1.0125,1.0178,1.0197,1.0229,1.0229,1.0253,1.0234,1.023,1.0229,1.0227,1.023,1.0256,1.0256,1.0257,1.0257,0,0.9864,0.9873,0.9904,0.9939,0.9964,0.9992,1.0019,1.0034,1.0054,1.0078,1.0113,1.0135,1.0178,1.0211,1.0244,1.026,1.0262,1.0263,1.027,1.0267,1.026,1.0263,1.0197,1.0261,1.0261,1.026,1.026,1.026,0.9896,0.992,0.9951,0.9985,1.0008,1.0033,1.0058,1.0077,1.0107,1.0144,1.0152,1.0189,1.0216,1.0261,1.0278,1.0307,1.0301,1.0311,1.0314,1.0316,1.0317,1.0257,1.0313,1.0313,1.0313,1.0313,1.0313,0,0.9943,0.9963,0.9995,1.0034,1.0061,1.0063,1.0093,1.0115,1.0148,1.0175,1.0203,1.0243,1.0276,1.0299,1.0332,1.0351,1.0352,1.0359,1.0357,1.0361,1.032,1.0311,1.0357,1.0357,1.0357,1.0357,1.0357,1.0357,0.997,1.0012,1.0025,1.0078,1.0098,1.0135,1.0152,1.0176,1.0197,1.0243,1.0271,1.0286,1.0311,1.0347,1.0377,1.0383,1.0394,1.0401,1.0406,1.0368,1.0363,1.0359,1.035,1.0404,1.0404,1.0444,1.0445,1.0445]},{"header":{"parameterUnit":"m.s-1","parameterCategory":1,"la1":30.2991,"la2":30.254,"lo1":-89.0895,"lo2":-89.0444,"dy":0.0017,"dx":0.0017,"nx":28,"ny":28,"refTime":"2024-11-24T09:00:00:Z","depth":0,"parameterNumber":3,"parameterNumberName":"V-component_of_WINDS"},"data":[0,0,0,0,0,0,0,0,0,0,0,0,0,0,0,0,0,0,0,0,0,0,0,0,0,0,0,0,0,0,0,0,0,0,0,0,0,0,0,0,0,0,0,0,0,0,0,0,0,0,0,0,0,0,0,0,0,0,3.0688,3.0689,0,3.0845,3.0847,3.0849,3.0862,3.086,3.0858,3.0857,3.1017,3.1022,3.1028,0,0,0,0,0,0,0,0,0,0,0,0,0,3.0397,3.0402,3.0687,3.0689,3.0691,3.0845,3.0847,3.0849,3.0862,3.086,3.0858,3.0856,3.1015,3.1022,3.1029,0,0,0,0,0,0,0,0,0,0,0,0,0,3.0536,3.0404,3.0687,3.0716,3.072,3.0845,3.0847,3.085,3.0862,3.086,3.0857,3.0855,3.1013,3.1021,3.103,3.1135,0,0,3.1057,3.106,0,0,0,0,0,0,0,0,3.0528,3.0546,3.071,3.0714,3.0719,3.0831,3.0804,3.0946,3.0863,3.0808,3.0857,3.0854,3.0957,3.097,3.1005,3.1143,3.115,3.1057,3.1063,3.1066,3.1069,0,0,0,0,0,0,0,3.0518,3.0539,3.075,3.0712,3.0718,3.0721,3.0738,3.0831,3.0895,3.0813,3.0814,3.0833,3.0959,3.0997,3.1009,3.1152,3.1057,3.1065,3.107,3.1074,3.1388,3.1391,0,0,0,0,0,0,3.0503,3.0531,3.0745,3.0755,3.0615,3.0729,3.0748,3.0798,3.0894,3.0906,3.0835,3.0833,3.0983,3.0999,3.1015,3.1147,3.1066,3.1075,3.108,3.1385,3.1388,3.1392,0,0,0,0,0,0,3.0497,3.0522,3.0738,3.0644,3.0671,3.0736,3.0793,3.0802,3.084,3.0911,3.0922,3.0862,3.0982,3.1003,3.1106,3.1153,3.1079,3.1087,3.1381,3.1386,3.139,3.1411,0,0,0,0,0,0,3.0488,3.052,3.056,3.0644,3.0676,3.0827,3.0796,3.0807,3.0856,3.0854,3.0939,3.0951,3.0981,3.1093,3.1115,3.1164,3.1093,3.1377,3.1383,3.1389,3.1407,3.1416,3.1424,0,0,0,0,0,3.0478,3.0559,3.0562,3.0588,3.0728,3.083,3.0848,3.0882,3.0859,3.0901,3.0947,3.0948,3.1144,3.1104,3.1128,3.118,3.1374,3.1381,3.1388,3.1403,3.1414,3.1424,0,0,0,0,0,0,3.0477,3.057,3.0575,3.0685,3.075,3.0831,3.0885,3.0893,3.0964,3.096,3.0999,3.1018,3.1121,3.1161,3.1114,3.1289,3.1257,3.1269,3.1259,3.1271,3.1279,3.1268,3.1101,0,0,0,0,0,3.049,3.0564,3.0642,3.0732,3.0764,3.0819,3.0864,3.0885,3.0953,3.098,3.1033,3.1099,3.1176,3.1225,3.13,3.1412,3.1432,3.1461,3.1469,3.1476,3.1486,3.1552,3.1566,3.1414,3.1414,3.1414,0,0,3.0516,3.0577,3.0621,3.0733,3.0785,3.0862,3.0841,3.0923,3.0981,3.0992,3.1094,3.1136,3.1212,3.1321,3.1372,3.1358,3.1533,3.1485,3.149,3.1496,3.156,3.1575,3.1588,3.1419,3.1418,3.1417,0,0,3.0605,3.0657,3.074,3.0793,3.0873,3.091,3.0929,3.1011,3.104,3.1143,3.1154,3.1223,3.1354,3.1409,3.1453,3.1566,3.1571,3.1589,3.1634,3.1698,3.171,3.1721,3.1763,3.1777,3.1599,3.1599,3.1599,0,3.0628,3.0744,3.078,3.0863,3.0913,3.0928,3.1012,3.1062,3.1162,3.1196,3.1179,3.1346,3.1398,3.1522,3.1549,3.1584,3.161,3.1579,3.1705,3.1716,3.1727,3.1768,3.1783,3.1601,3.1601,3.16,3.16,0,3.077,3.0851,3.0907,3.1005,3.1061,3.1144,3.1193,3.1246,3.1263,3.1301,3.1407,3.1471,3.156,3.1591,3.1607,3.1718,3.1707,3.1697,3.1665,3.1743,3.1782,3.1798,3.1603,3.1603,3.1602,3.1602,0,0,3.0861,3.098,3.1,3.1046,3.1137,3.12,3.1284,3.1372,3.1417,3.1486,3.1559,3.1671,3.1663,3.1714,3.1737,3.1793,3.1881,3.1777,3.1779,3.1795,3.201,3.2018,3.2036,3.1885,3.1888,3.189,3.2005,0,3.0961,3.1112,3.1148,3.1277,3.1353,3.1371,3.1444,3.1508,3.1548,3.1618,3.1661,3.1741,3.1723,3.1755,3.1811,3.1858,3.1925,3.1851,3.1954,3.1957,3.1936,3.2056,3.2064,3.2168,3.202,3.2022,3.2024,0,3.1097,3.1171,3.1308,3.1392,3.1425,3.1491,3.1576,3.1643,3.1717,3.1742,3.18,3.1819,3.1908,3.1872,3.1998,3.1946,3.1991,3.2021,3.2026,3.2038,3.1996,3.2072,3.2202,3.2219,3.2048,3.2046,3.2045,0,3.1152,3.1285,3.1386,3.1424,3.1524,3.157,3.1613,3.1685,3.1736,3.1811,3.1845,3.1929,3.1975,3.204,3.2081,3.205,3.2204,3.217,3.2228,3.2228,3.226,3.2258,3.2401,3.2287,3.2286,3.2286,3.2286,0,3.126,3.1344,3.1412,3.1474,3.1569,3.161,3.1704,3.1747,3.1811,3.1883,3.1902,3.1969,3.2019,3.2093,3.2126,3.2226,3.2246,3.227,3.2278,3.2269,3.2266,3.2299,3.2294,3.229,3.2289,3.2289,3.2288,0,3.1337,3.1386,3.1497,3.1583,3.1607,3.1673,3.1747,3.1809,3.1849,3.1939,3.1963,3.2026,3.2115,3.2163,3.2273,3.2295,3.2409,3.2411,3.2384,3.2387,3.2444,3.2438,3.2614,3.264,3.2507,3.2508,3.2509,0,3.1404,3.1469,3.1563,3.1613,3.1657,3.1737,3.179,3.1834,3.1889,3.198,3.2031,3.2121,3.2195,3.2336,3.2392,3.2478,3.2484,3.254,3.2497,3.2487,3.2488,3.2484,3.2492,3.2548,3.2549,3.255,3.2551,0,3.1517,3.1539,3.1615,3.1702,3.1765,3.1835,3.1903,3.1943,3.1998,3.2059,3.2151,3.2209,3.2323,3.2413,3.2503,3.2549,3.256,3.2564,3.2582,3.2574,3.2556,3.2569,3.2406,3.256,3.2559,3.2558,3.2558,3.2557,3.1592,3.1652,3.1729,3.1814,3.1871,3.1935,3.1998,3.2048,3.2125,3.2221,3.2243,3.234,3.2415,3.2538,3.2587,3.2664,3.2653,3.2679,3.2686,3.2692,3.2696,3.2543,3.268,3.268,3.268,3.268,3.268,0,3.1708,3.1759,3.1837,3.1934,3.2002,3.2007,3.2084,3.2141,3.2226,3.2295,3.2369,3.2476,3.2564,3.2628,3.2718,3.2768,3.2776,3.2791,3.2788,3.2799,3.2699,3.2675,3.2783,3.2783,3.2783,3.2783,3.2783,3.2783,3.1777,3.1879,3.1911,3.2042,3.2092,3.2188,3.2232,3.2293,3.2349,3.2467,3.2541,3.2583,3.2651,3.2747,3.2829,3.2846,3.2879,3.2894,3.2911,3.2817,3.2806,3.2795,3.2773,3.29,3.29,3.3006,3.3007,3.3007]}]]